Lid_Strength_Index
2 2 1 1 1 1 1 0 0 -0 -0 0 1 1 1 0 -1 -1 -2 -2 -1 -2 -1 -1 -1 -1 -1 -1 -1 -0 0 1 -0 0 1 0 -0 -0 -0 -1 -1 -1 -1
3 2 2 1 1 1 1 0 0 -0 -0 0 0 -0 -0 -0 -0 -1 -1 -2 -2 -2 -1 -1 -1 -1 -0 -1 -1 -0 0 0 -0 1 1 3 2 1 -0 -0 -0 -1 -1
4 3 2 2 1 1 1 1 0 0 -0 -0 -0 -0 -0 0 0 0 -0 -1 -2 -2 -2 -2 -1 -1 -1 -0 -0 -0 0 1 0 0 2 4 5 3 0 0 -0 -0 -0
3 3 3 2 2 1 0 0 0 0 -0 -0 0 0 1 2 0 -0 -0 -1 -2 -1 -2 -2 -2 -1 -1 -1 -0 -0 -1 0 1 0 0 0 0 3 4 1 1 -0 -0
3 3 3 2 1 1 1 0 0 0 -0 -0 0 1 1 1 0 0 -0 -1 -1 -1 -1 -2 -2 -1 -1 -1 -1 -1 -0 -0 1 1 1 1 1 1 3 4 3 1 1
3 3 2 2 2 1 1 1 0 0 0 0 1 1 1 1 1 1 1 0 0 -0 -1 -1 -1 -1 -1 -0 -1 -1 -1 -0 -0 0 -0 1 2 2 3 3 2 2 2
3 3 3 3 2 2 1 1 1 1 0 1 1 1 1 0 1 1 1 0 0 0 -0 -1 -1 -1 -1 -1 -1 -1 -1 -0 0 0 1 0 0 0 1 1 2 3 2
3 3 3 3 2 2 2 1 1 2 1 1 1 0 1 0 0 0 0 0 0 0 -1 -1 -1 -0 -0 -1 -1 -1 -0 -1 -0 -0 -0 0 0 0 1 2 2 4 3
4 3 3 2 2 2 2 1 1 1 1 1 2 1 1 0 0 -0 -0 0 -1 -0 -1 -1 -1 -1 -1 -1 -1 -0 -0 -0 -0 -0 -0 0 -0 -0 -1 0 1 2 4
4 3 3 2 2 2 1 1 1 1 1 1 1 1 1 0 0 -0 -0 -0 -0 -1 -1 -0 -1 -1 -1 -1 -1 -0 -0 -0 0 0 -0 0 0 -0 -0 -0 -0 1 2
4 3 3 2 2 1 1 1 1 1 1 1 0 1 1 0 0 1 -0 -0 -0 -1 -0 -0 -0 -0 -0 -1 -0 -0 -0 0 0 -0 -0 0 -1 1 0 -1 0 1 1
3 3 3 2 2 2 2 2 1 1 1 0 1 1 1 1 1 0 -0 -1 -0 -1 -0 -0 -0 -0 -0 -1 -0 0 -0 0 1 0 0 0 0 0 -0 0 0 -0 0
3 3 3 3 2 2 1 1 1 1 1 0 1 1 1 1 1 0 0 -0 -0 -0 -0 -0 0 -0 -0 -0 -0 -0 0 -0 0 0 0 0 0 1 0 0 1 1 1
4 3 3 3 3 2 2 1 1 0 1 1 1 1 1 1 1 0 0 0 -0 -0 -0 -0 -0 0 -0 -0 -0 -0 -0 -0 0 -0 -0 -0 0 0 0 1 0 0 1
4 3 3 3 2 2 2 1 1 1 1 1 1 1 0 0 0 0 0 -0 -0 0 0 0 0 -0 0 0 -0 -0 0 0 0 0 -0 -0 -0 1 0 1 1 1 1
4 3 3 3 2 2 2 1 1 1 0 1 1 1 0 0 1 0 0 0 0 0 0 0 1 1 1 2 2 0 0 0 0 1 0 -0 0 0 2 2 1 0 1
4 3 3 2 2 2 1 1 1 0 0 0 0 0 0 0 0 0 0 0 0 0 0 0 0 1 0 3 3 1 0 1 1 1 1 0 0 0 -0 2 2 2 2
3 3 2 2 1 1 1 1 0 0 0 0 0 -0 -0 0 0 0 0 0 0 0 1 0 0 1 1 3 3 2 0 1 0 0 0 1 0 -0 0 0 0 0 -0
3 2 2 1 1 1 0 0 1 0 0 0 0 -0 -0 -0 -0 0 1 0 0 1 1 0 1 1 0 4 5 3 1 1 1 0 0 1 1 2 3 1 1 1 0
2 1 1 1 1 1 1 1 1 1 1 0 0 -0 -0 0 0 -0 -0 -0 0 0 1 1 0 2 0 4 5 4 1 1 1 0 0 3 1 3 5 1 1 2 1
2 1 1 1 1 0 0 1 1 1 0 -0 -0 -0 -0 -0 -0 -0 -0 -0 0 0 1 1 0 0 0 0 4 3 0 1 1 1 1 1 5 7 7 5 1 2 0
2 1 1 1 0 -0 0 1 1 0 0 0 0 0 -0 0 0 -0 0 0 0 1 1 1 1 0 0 4 3 4 4 1 1 2 1 1 7 8 8 6 4 6 3
2 1 1 1 0 0 1 1 1 0 0 0 0 0 -0 0 0 1 1 1 1 1 1 2 1 1 0 0 6 6 6 5 2 1 3 7 9 9 7 6 6 6 1
2 1 1 2 2 1 0 0 0 -0 0 1 1 1 1 1 0 1 1 1 1 1 1 2 2 1 1 1 1 1 1 4 2 3 1 3 3 4 3 4 5 2 1
2 1 2 2 1 1 1 0 -0 -0 1 1 1 1 1 1 1 1 1 1 0 1 1 1 1 1 2 1 3 3 1 1 2 2 1 2 2 2 2 2 3 2 1
1 2 1 1 1 1 1 0 -0 -0 1 1 1 1 1 1 1 1 1 3 5 5 6 7 4 1 4 7 8 8 11 12 10 2 2 3 3 2 2 2 2 1 1